#timestamp,LO_Frequency,Hit,StdDev 
1508011215.7,286046995.9,N
1508011235.5,286046995.7,N
1508011255.4,286046996.1,N
1508011275.2,286046997.6,N
1508011295.0,286046996.9,N
1508011295.9,286046996.9,N
1508011315.8,286046996.6,N
1508011335.6,286046998.8,N
1508011355.4,286046998.8,N
1508011375.3,286046999.2,N
1508011395.1,286046999.0,N
1508011396.0,286046999.0,N
1508011415.8,286046997.8,N
1508011435.7,286046992.4,N
1508011455.5,286046993.0,N
1508011475.3,286046992.3,N
1508011495.2,286046990.9,Y
1508011515.9,286046993.0,P
1508011535.7,286046990.9,P
1508011555.5,286046991.4,P
1508011575.4,286046989.7,Y
1508011595.2,286046994.5,P
1508011615.0,286046996.1,P
1508011616.0,286046996.1,P
1508011635.8,286046994.4,Y
1508011655.6,286046997.3,P
1508011675.5,286046995.8,P
1508011695.3,286046995.7,P
1508011715.1,286046995.1,Y
1508011735.9,286047000.4,P
1508011755.7,286047000.5,N
1508011775.5,286047000.6,N
1508011795.4,286046999.7,N
1508011815.2,286047000.4,N
1508011835.0,286047002.4,N
1508011835.9,286047002.4,N
1508011855.8,286047000.5,N
1508011875.6,286047001.1,N
1508011895.4,286047001.1,N
1508011915.2,286047000.6,N
1508011935.1,286047004.1,N
1508011936.0,286047004.1,N
1508011955.8,286047001.9,N
1508011975.6,286046999.7,N
1508011995.5,286047000.7,N
1508012015.3,286047002.1,N
1508012035.1,286047002.4,N
1508012055.9,286047001.0,N
1508012075.7,286047001.7,N
1508012095.5,286047007.1,Y
1508012115.4,286047004.1,P
1508012135.2,286047003.0,N
1508012155.0,286047003.2,N
1508012155.9,286047003.2,N
1508012175.8,286047001.1,N
1508012195.6,286047001.9,N
1508012215.4,286047009.2,Y
1508012235.3,286047006.4,P
1508012255.1,286047013.6,P
1508012256.0,286047013.6,N
1508012275.8,286047016.9,Y
1508012295.7,286047006.8,P
1508012315.5,286047007.5,P
1508012335.3,286047006.8,P
1508012355.2,286047009.2,Y
1508012375.9,286047002.6,P
1508012395.7,286047002.5,N
1508012415.6,286047002.9,N
1508012435.4,286047002.8,N
1508012455.2,286047003.6,N
1508012475.1,286047001.8,N
1508012476.0,286047001.8,N
1508012495.8,286047001.3,N
1508012515.6,286047005.2,N
1508012535.5,286047007.1,Y
1508012555.3,286047007.4,P
1508012575.1,286047004.5,N
1508012595.9,286047006.9,P
1508012615.7,286047006.3,Y
1508012635.5,286047002.6,P
1508012655.4,286046998.9,N
1508012675.2,286047001.0,N
1508012695.0,286047000.6,N
1508012695.9,286047000.6,N
1508012715.7,286047000.6,N
1508012735.6,286047001.5,N
1508012755.4,286047002.8,N
1508012775.2,286047001.0,N
1508012795.1,286046999.7,N
1508012796.0,286046999.7,N
1508012815.8,286047000.0,N
1508012835.6,286046998.2,N
1508012855.5,286046996.9,N
1508012875.3,286046997.3,N
1508012895.1,286046996.7,N
1508012915.9,286046999.0,N
1508012935.7,286046996.7,N
1508012955.5,286046993.8,N
1508012975.4,286046993.9,N
1508012995.2,286046994.9,N
1508013015.0,286046997.5,N
1508013015.9,286046997.5,N
1508013035.8,286046999.3,N
1508013055.6,286047002.8,N
1508013075.4,286047001.6,N
1508013095.2,286047000.9,N
1508013115.1,286046998.6,N
1508013116.0,286046998.6,N
1508013135.8,286047004.4,N
1508013155.6,286047006.0,N
1508013175.5,286047005.8,N
1508013195.3,286047001.4,N
1508013215.1,286047002.3,N
1508013235.9,286047000.5,N
1508013255.7,286047000.1,N
1508013275.5,286046998.1,N
1508013295.4,286047002.4,N
1508013315.2,286047003.9,N
1508013335.0,286047000.6,N
1508013335.9,286047000.6,N
1508013355.8,286046999.2,N
1508013375.6,286046993.4,N
1508013395.4,286046992.8,N
1508013415.3,286046987.7,Y
1508013435.1,286046985.7,P
1508013436.0,286046985.7,N
1508013455.8,286046985.0,N
1508013475.7,286046978.9,Y
1508013495.5,286046990.9,P
1508013515.3,286046988.7,P
1508013535.2,286046985.4,P
1508013555.9,286046985.2,Y
1508013575.7,286046993.7,P
1508013595.6,286046993.5,N
1508013615.4,286046990.4,P
1508013635.2,286046990.8,Y
1508013655.1,286047000.9,P
1508013656.0,286047000.9,N
1508013675.8,286046997.0,N
1508013695.6,286046994.9,N
1508013715.5,286046995.7,N
1508013735.3,286046996.8,N
1508013755.1,286046994.9,N
1508013775.9,286046996.3,N
1508013795.7,286046994.1,N
1508013815.5,286046996.4,N
1508013835.3,286046993.6,N
1508013855.2,286046995.5,N
1508013875.0,286046997.9,N
1508013875.9,286046997.9,N
1508013895.7,286046997.6,N
1508013915.6,286046994.9,N
1508013935.4,286046996.1,N
1508013955.2,286046996.7,N
1508013975.1,286046996.7,N
1508013976.0,286046996.7,N
1508013995.8,286047000.8,N
1508014015.6,286046998.2,N
1508014035.5,286047001.1,N
1508014055.3,286047000.8,N
1508014075.1,286047001.2,N
1508014095.9,286047000.8,N
1508014115.7,286047000.7,N
1508014135.5,286046998.5,N
1508014155.3,286046997.2,N
1508014175.2,286047003.3,N
1508014195.0,286047008.0,Y
1508014195.9,286047008.0,P
1508014215.8,286047012.6,N
1508014235.6,286047020.1,P
1508014255.4,286047022.7,N
1508014275.2,286047022.3,N
1508014295.1,286047023.9,N
1508014296.0,286047023.9,N
1508014315.8,286047026.5,N
1508014335.6,286047022.4,N
1508014355.5,286047028.3,Y
1508014375.3,286047014.0,P
1508014395.1,286047011.5,P
1508014415.9,286047010.8,P
1508014435.7,286047009.5,Y
1508014455.5,286047000.6,P
1508014475.4,286047000.7,N
1508014495.2,286047000.9,N
1508014515.0,286047000.8,N
1508014515.9,286047000.8,N
1508014535.8,286047001.5,N
1508014555.6,286047001.9,N
1508014575.4,286047003.4,N
1508014595.3,286047004.2,N
1508014615.1,286047004.2,N
1508014635.8,286047006.7,N
1508014655.7,286047007.2,N
1508014675.5,286047004.7,N
1508014695.3,286047004.6,N
1508014715.2,286047004.5,N
1508014735.9,286047004.0,N
1508014755.7,286047003.5,N
1508014775.5,286047002.9,N
1508014795.4,286047005.6,N
